Location: Fort Worth, Tx
(32.7431°N, 97.3695°W)
Time: 18:23:12
(UTC-04:00)

ISS - Visible Passes

Search period start: 18 May 2024 00:00
Search period end: 28 May 2024 00:00
Orbit: 410 x 414 km, 51.6° (Epoch: 18 May)

Date Brightness Start Highest point End Pass type
(mag) Time Alt. Az. Time Alt. Az. Time Alt. Az.
24 May -0.8 00:19:15 10° NNW 00:20:12 15° N 00:20:12 15° N visible
24 May -1.3 23:29:48 10° N 23:31:43 14° NNE 23:31:54 14° NE visible
26 May -1.1 00:15:09 10° NW 00:16:21 20° NW 00:16:21 20° NW visible
26 May -2.5 23:25:10 10° NNW 23:28:02 33° NNE 23:28:02 33° NNE visible
27 May -1.7 22:35:22 10° NNW 22:37:51 19° NE 22:39:43 13° ENE visible
